{"data":{"norad_id":37225,"intl_designator":"2010-062D","name":"FASTSAT-HSV01 (USA 220)","alt_names":[],"object_type":"PAYLOAD","status":"ACTIVE","operator":null,"country":"US","launch_date":"2010-11-20","launch_site_code":"KODAK","launch_vehicle":null,"mission":null,"orbit_class":"UNKNOWN","rcs_meters":null,"size_class":null,"mass_kg":null,"dimensions":null,"purposes":[],"wikipedia_slug":null,"has_3d_model":false,"image_url":null,"decayed_at":null,"tle_current":{"epoch":"2026-05-25T05:09:54.631296Z","epoch_age_seconds":53701,"freshness":"FRESH","line1":"1 37225U 10062D   26145.21521564  .00000354  00000+0  51733-4 0  9996","line2":"2 37225  71.9718 210.8072 0016415 178.3537 181.7685 14.82112645110726","mean_motion":14.82112645,"eccentricity":0.0016415,"inclination_deg":71.9718,"raan_deg":210.8072,"arg_perigee_deg":178.3537,"mean_anomaly_deg":181.7685,"bstar":5.1733e-5,"rev_number":11072,"period_min":97.158606996434,"perigee_km":611.17164981275,"apogee_km":634.15527773532,"semimajor_km":7000.800463774,"source":"CELESTRAK","updated_at":"2026-05-25T13:37:55.229440Z"}}}